This demonstration page uses our WeatherBlox Daily Observations layout. Learn more.

Left ArrowRight Arrow

Hourly Observations for March 1, 2021

Temp ( °F °C ) Dew Point ( °F °C ) Humidity (%) Winds ( mph kmh ) Pressure ( in mb ) Visibility ( mi km ) Precip ( " mm )
12:15 am 00:15 Clear 29 -1.6 24 -4.7 80 80 SW 8 13 30.3 1026 10 16.0934 0 0
12:35 am 00:35 Clear 29 -1.8 23 -5 79 79 SW 7 11 30.3 1026 10 16.0934 0 0
12:55 am 00:55 Clear 29 -1.9 23 -5.1 79 79 SW 7 11 30.3 1026 10 16.0934 0 0
1:15 am 01:15 Clear 29 -1.7 23 -5.1 78 78 SW 9 15 30.3 1026 10 16.0934 0 0
1:35 am 01:35 Clear 29 -1.6 23 -5 78 78 SW 12 19 30.3 1026 10 16.0934 0 0
1:55 am 01:55 Clear 29 -1.6 22 -5.4 76 76 SW 10 17 30.3 1026 10 16.0934 0 0
2:15 am 02:15 Clear 29 -1.5 21 -6 72 72 WSW 12 19 30.3 1026 10 16.0934 0 0
2:35 am 02:35 Clear 29 -1.5 21 -6.2 71 71 W 13 20 30.31 1026 10 16.0934 0 0
2:55 am 02:55 Clear 29 -1.7 20 -6.5 70 70 W 8 13 30.3 1026 10 16.0934 0 0
3:15 am 03:15 Clear 29 -1.6 20 -6.7 69 69 W 14 22 30.3 1026 10 16.0934 0 0
3:35 am 03:35 Clear 27 -2.6 20 -6.7 74 74 W 10 17 30.31 1026 10 16.0934 0 0
3:55 am 03:55 Clear 28 -2.2 20 -6.6 72 72 WNW 8 13 30.32 1027 10 16.0934 0 0
4:15 am 04:15 Clear 28 -2 20 -6.7 71 71 WNW 10 17 30.31 1027 10 16.0934 0 0
4:35 am 04:35 Clear 28 -2.3 20 -6.5 73 73 WNW 9 15 30.32 1027 10 16.0934 0 0
4:55 am 04:55 Clear 28 -2.4 20 -6.6 73 73 NW 8 13 30.32 1027 10 16.0934 0 0
5:15 am 05:15 Clear 29 -1.8 21 -6.3 72 72 WNW 8 13 30.32 1027 10 16.0934 0 0
5:35 am 05:35 Clear 28 -2 20 -6.6 71 71 NW 8 13 30.33 1027 10 16.0934 0 0
5:55 am 05:55 Clear 28 -2 21 -6.2 73 73 NW 9 15 30.33 1027 10 16.0934 0 0
6:15 am 06:15 Clear 29 -1.5 20 -6.5 69 69 NW 9 15 30.34 1027 10 16.0934 0 0
6:35 am 06:35 Clear 29 -1.6 21 -6.2 71 71 NW 12 19 30.34 1027 10 16.0934 0 0
6:55 am 06:55 Clear 29 -1.6 21 -6.2 71 71 NW 13 20 30.35 1028 10 16.0934 0 0
7:15 am 07:15 Sunny 29 -1.6 21 -6.3 71 71 NW 10 17 30.36 1028 10 16.0934 0 0
7:35 am 07:35 Sunny 29 -1.5 21 -6.2 71 71 NW 10 17 30.36 1028 10 16.0934 0 0
7:55 am 07:55 Sunny 30 -1 21 -6 69 69 NW 12 19 30.38 1029 10 16.0934 0 0
8:15 am 08:15 Sunny 31 -0.4 22 -5.4 69 69 NW 10 17 30.38 1029 10 16.0934 0 0
8:35 am 08:35 Sunny 32 0.1 24 -4.5 72 72 WNW 10 17 30.38 1029 10 16.0934 0 0
8:55 am 08:55 Sunny 34 1.1 24 -4.5 67 67 NW 10 17 30.39 1029 10 16.0934 0 0
9:15 am 09:15 Sunny 35 1.7 24 -4.6 63 63 NW 10 17 30.38 1029 10 16.0934 0 0
9:35 am 09:35 Sunny 37 2.8 24 -4.2 60 60 NW 10 17 30.38 1029 10 16.0934 0 0
9:55 am 09:55 Sunny 39 3.8 25 -4.1 57 57 NNW 8 13 30.37 1028 10 16.0934 0 0
10:15 am 10:15 Sunny 40 4.6 25 -3.8 55 55 NNW 9 15 30.37 1029 10 16.0934 0 0
10:35 am 10:35 Sunny 41 5.1 26 -3.6 54 54 N 9 15 30.37 1028 10 16.0934 0 0
10:55 am 10:55 Sunny 42 5.7 25 -3.8 51 51 N 7 11 30.37 1029 10 16.0934 0 0
11:15 am 11:15 Sunny 43 6.1 26 -3.6 50 50 N 8 13 30.38 1029 10 16.0934 0 0
11:35 am 11:35 Sunny 45 7 26 -3.1 49 49 N 8 13 30.37 1028 10 16.0934 0 0
11:55 am 11:55 Sunny 46 7.5 26 -3.2 47 47 NNW 7 11 30.37 1028 10 16.0934 0 0
12:15 pm 12:15 Sunny 47 8.1 25 -4 43 43 N 9 15 30.36 1028 10 16.0934 0 0
12:35 pm 12:35 Sunny 47 8.6 24 -4.6 39 39 NNW 5 7 30.35 1028 10 16.0934 0 0
12:55 pm 12:55 Sunny 48 8.8 24 -4.6 39 39 N 6 9 30.34 1028 10 16.0934 0 0
1:15 pm 13:15 Sunny 48 9 24 -4.7 38 38 N 5 7 30.33 1027 10 16.0934 0 0
1:35 pm 13:35 Sunny 49 9.7 24 -4.7 36 36 Calm 30.32 1027 10 16.0934 0 0
1:55 pm 13:55 Sunny 49 9.5 24 -4.7 37 37 Calm 30.32 1027 10 16.0934 0 0
2:15 pm 14:15 Sunny 49 9.6 23 -4.9 36 36 N 7 11 30.32 1027 10 16.0934 0 0
2:35 pm 14:35 Sunny 49 9.7 23 -4.9 36 36 NNE 6 9 30.32 1027 10 16.0934 0 0
2:55 pm 14:55 Sunny 49 9.5 22 -5.4 35 35 NNE 3 6 30.31 1026 10 16.0934 0 0
3:15 pm 15:15 Sunny 50 10 24 -4.7 35 35 N 5 7 30.3 1026 10 16.0934 0 0
3:35 pm 15:35 Sunny 50 9.8 23 -5 35 35 WNW 3 6 30.3 1026 10 16.0934 0 0
3:55 pm 15:55 Sunny 49 9.7 23 -5.1 35 35 NE 3 6 30.31 1026 10 16.0934 0 0
4:15 pm 16:15 Sunny 50 9.9 23 -5.2 34 34 Calm 30.29 1026 10 16.0934 0 0
4:35 pm 16:35 Sunny 50 9.8 23 -5.1 35 35 Calm 30.29 1026 10 16.0934 0 0
4:55 pm 16:55 Sunny 50 9.8 23 -4.9 35 35 ENE 3 6 30.28 1026 10 16.0934 0 0
5:15 pm 17:15 Sunny 49 9.7 23 -5 35 35 ESE 5 7 30.29 1026 10 16.0934 0 0
5:35 pm 17:35 Sunny 49 9.3 24 -4.4 38 38 ESE 3 6 30.29 1026 10 16.0934 0 0
5:55 pm 17:55 Sunny 47 8.5 27 -2.8 45 45 ESE 5 7 30.3 1026 10 16.0934 0 0
6:15 pm 18:15 Sunny 44 6.9 29 -1.4 56 56 SE 6 9 30.31 1026 10 16.0934 0 0
6:35 pm 18:35 Clear 43 6 28 -2.5 55 55 SE 6 9 30.32 1027 10 16.0934 0 0
6:55 pm 18:55 Clear 42 5.3 26 -3.2 55 55 SE 7 11 30.33 1027 10 16.0934 0 0
7:15 pm 19:15 Clear 39 4.1 26 -3.2 59 59 SE 7 11 30.34 1027 10 16.0934 0 0
7:35 pm 19:35 Clear 38 3.4 26 -3.5 61 61 SSE 7 11 30.34 1028 10 16.0934 0 0
7:55 pm 19:55 Clear 38 3.2 25 -3.7 61 61 SSE 6 9 30.34 1027 10 16.0934 0 0
8:15 pm 20:15 Clear 36 2.4 25 -3.8 64 64 SSE 7 11 30.34 1028 10 16.0934 0 0
8:35 pm 20:35 Clear 36 2.1 25 -3.7 66 66 SSE 7 11 30.35 1028 10 16.0934 0 0
8:55 pm 20:55 Clear 36 2 25 -3.7 66 66 SSE 6 9 30.35 1028 10 16.0934 0 0
9:15 pm 21:15 Clear 36 2 25 -3.7 66 66 SSE 7 11 30.34 1027 10 16.0934 0 0
9:35 pm 21:35 Clear 35 1.6 25 -3.7 68 68 S 7 11 30.34 1027 10 16.0934 0 0
9:55 pm 21:55 Clear 35 1.7 25 -3.8 67 67 S 8 13 30.33 1027 10 16.0934 0 0
10:15 pm 22:15 Clear 34 1.2 25 -4 69 69 S 8 13 30.33 1027 10 16.0934 0 0
10:35 pm 22:35 Clear 34 1.2 25 -4.1 68 68 S 9 15 30.32 1027 10 16.0934 0 0
10:55 pm 22:55 Clear 34 1.3 24 -4.3 67 67 S 9 15 30.32 1027 10 16.0934 0 0
11:15 pm 23:15 Clear 34 1.1 24 -4.3 68 68 S 9 15 30.32 1027 10 16.0934 0 0
11:35 pm 23:35 Clear 33 0.5 24 -4.5 69 69 S 9 15 30.32 1027 10 16.0934 0 0
11:55 pm 23:55 Clear 32 0.2 24 -4.5 71 71 S 9 15 30.31 1027 10 16.0934 0 0

Powered by AerisWeather